CHS2 LSZH-LSZB

Flight info

Callsign CHS2
Flight time 0h 24m
Altitude 9000
Route VEBIT T544 WIL Z601 ROTOS
Aircraft PC12/L-SDFGRWY/S

Departure

Time 2026-05-07 14:06
Airport Zürich Airport (LSZH)

Arrival

Time 2026-05-07 14:30
Airport Bern Airport (LSZB)
Time Latitude Longitude Altitude Speed Heading
2026-05-07 13:20 47.45541 8.56635 1393 ft 0 kts 320°
2026-05-07 13:58 47.45536 8.56643 1418 ft 0 kts 320°
2026-05-07 14:02 47.45552 8.56634 1421 ft 3 kts 360°
2026-05-07 14:02 47.45574 8.56643 1397 ft 4 kts 30°
2026-05-07 14:02 47.45583 8.56663 1395 ft 0 kts 89°
2026-05-07 14:03 47.45579 8.56695 1393 ft 7 kts 96°
2026-05-07 14:03 47.45574 8.56788 1396 ft 10 kts 94°
2026-05-07 14:03 47.45566 8.56905 1393 ft 13 kts 95°
2026-05-07 14:03 47.45573 8.56988 1393 ft 4 kts 50°
2026-05-07 14:04 47.45580 8.57000 1400 ft 0 kts 41°
2026-05-07 14:04 47.45586 8.57007 1397 ft 5 kts 32°
2026-05-07 14:04 47.45652 8.57018 1394 ft 13 kts 335°
2026-05-07 14:05 47.45665 8.56992 1394 ft 0 kts 275°
2026-05-07 14:05 47.45665 8.56981 1394 ft 8 kts 275°
2026-05-07 14:05 47.45684 8.56685 1393 ft 59 kts 276°
2026-05-07 14:06 47.45743 8.55829 1410 ft 105 kts 277°
2026-05-07 14:06 47.45811 8.54642 1642 ft 125 kts 278°
2026-05-07 14:06 47.45850 8.53318 2119 ft 131 kts 278°
2026-05-07 14:06 47.45914 8.51945 2734 ft 139 kts 280°
2026-05-07 14:07 47.46074 8.50457 3151 ft 157 kts 287°
2026-05-07 14:07 47.46392 8.48864 3662 ft 166 kts 292°
2026-05-07 14:07 47.46635 8.47128 3968 ft 179 kts 282°
2026-05-07 14:07 47.46500 8.45266 4068 ft 193 kts 262°
2026-05-07 14:08 47.45857 8.43466 4094 ft 206 kts 242°
2026-05-07 14:08 47.44766 8.42006 4183 ft 214 kts 223°
2026-05-07 14:08 47.43476 8.40970 4596 ft 203 kts 221°
2026-05-07 14:08 47.42439 8.39825 5434 ft 181 kts 229°
2026-05-07 14:09 47.41548 8.38470 5992 ft 186 kts 237°
2026-05-07 14:09 47.40658 8.37011 6253 ft 198 kts 235°
2026-05-07 14:09 47.39671 8.35501 6368 ft 207 kts 238°
2026-05-07 14:09 47.38849 8.33779 6829 ft 204 kts 248°
2026-05-07 14:10 47.38268 8.31813 6884 ft 216 kts 259°
2026-05-07 14:10 47.37896 8.29668 7124 ft 213 kts 265°
2026-05-07 14:10 47.37564 8.27483 7088 ft 219 kts 265°
2026-05-07 14:10 47.37367 8.25236 7064 ft 226 kts 274°
2026-05-07 14:11 47.37186 8.22874 6737 ft 237 kts 269°
2026-05-07 14:11 47.36801 8.20513 6278 ft 247 kts 262°
2026-05-07 14:11 47.36184 8.18125 5683 ft 244 kts 257°
2026-05-07 14:11 47.35655 8.15873 5446 ft 223 kts 263°
2026-05-07 14:12 47.35284 8.14303 5111 ft 228 kts 257°
2026-05-07 14:12 47.34594 8.12179 4639 ft 231 kts 250°
2026-05-07 14:12 47.33672 8.10177 3987 ft 239 kts 239°
2026-05-07 14:12 47.32579 8.08455 3966 ft 222 kts 236°
2026-05-07 14:13 47.31708 8.07047 3955 ft 216 kts 239°
2026-05-07 14:13 47.30958 8.05635 4034 ft 209 kts 243°
2026-05-07 14:13 47.29936 8.03997 3930 ft 211 kts 229°
2026-05-07 14:13 47.28704 8.02891 3993 ft 206 kts 216°
2026-05-07 14:14 47.27529 8.01908 4518 ft 185 kts 222°
2026-05-07 14:14 47.26551 8.00779 4959 ft 176 kts 231°
2026-05-07 14:14 47.25949 7.99918 5014 ft 183 kts 234°
2026-05-07 14:14 47.24931 7.98367 5018 ft 192 kts 236°
2026-05-07 14:15 47.23966 7.97080 5215 ft 191 kts 228°
2026-05-07 14:15 47.22823 7.95976 5161 ft 201 kts 220°
2026-05-07 14:15 47.21617 7.94886 5132 ft 204 kts 226°
2026-05-07 14:15 47.20654 7.93317 4999 ft 212 kts 244°
2026-05-07 14:16 47.19838 7.91518 5038 ft 206 kts 248°
2026-05-07 14:16 47.19161 7.89654 5084 ft 206 kts 250°
2026-05-07 14:16 47.18444 7.87839 4776 ft 216 kts 249°
2026-05-07 14:16 47.17518 7.85882 4347 ft 225 kts 242°
2026-05-07 14:17 47.16723 7.84068 4831 ft 206 kts 250°
2026-05-07 14:17 47.16147 7.82211 5253 ft 189 kts 258°
2026-05-07 14:17 47.15855 7.80407 5621 ft 184 kts 267°
2026-05-07 14:17 47.15706 7.78635 5734 ft 187 kts 273°
2026-05-07 14:18 47.15483 7.76702 5631 ft 198 kts 261°
2026-05-07 14:18 47.14900 7.74888 5633 ft 200 kts 251°
2026-05-07 14:18 47.14193 7.73085 5541 ft 206 kts 245°
2026-05-07 14:18 47.13299 7.71426 5517 ft 206 kts 237°
2026-05-07 14:19 47.12289 7.69986 5599 ft 202 kts 230°
2026-05-07 14:19 47.11151 7.68786 5676 ft 201 kts 221°
2026-05-07 14:19 47.09953 7.67770 5871 ft 196 kts 218°
2026-05-07 14:19 47.08877 7.66715 6282 ft 184 kts 225°
2026-05-07 14:20 47.07812 7.65617 6397 ft 190 kts 221°
2026-05-07 14:20 47.06613 7.64737 6502 ft 194 kts 212°
2026-05-07 14:20 47.05368 7.64011 6724 ft 191 kts 210°
2026-05-07 14:20 47.04112 7.63375 6804 ft 195 kts 204°
2026-05-07 14:21 47.02735 7.63066 6776 ft 201 kts 195°
2026-05-07 14:21 47.01667 7.62963 6742 ft 205 kts 190°
2026-05-07 14:21 47.00188 7.63139 6592 ft 212 kts 182°
2026-05-07 14:21 46.98739 7.63497 6502 ft 215 kts 179°
2026-05-07 14:22 46.97293 7.63891 6567 ft 211 kts 182°
2026-05-07 14:22 46.95829 7.64103 6506 ft 215 kts 184°
2026-05-07 14:22 46.94342 7.64460 6388 ft 219 kts 175°
2026-05-07 14:22 46.92945 7.65205 6368 ft 198 kts 168°
2026-05-07 14:23 46.91797 7.65898 6555 ft 170 kts 169°
2026-05-07 14:23 46.90673 7.66374 6799 ft 167 kts 175°
2026-05-07 14:23 46.89516 7.66710 6937 ft 173 kts 178°
2026-05-07 14:23 46.88361 7.67342 6944 ft 180 kts 163°
2026-05-07 14:24 46.87318 7.68260 7083 ft 177 kts 158°
2026-05-07 14:24 46.86257 7.69120 7306 ft 173 kts 162°
2026-05-07 14:24 46.85163 7.69804 7277 ft 165 kts 171°
2026-05-07 14:24 46.84071 7.70244 7181 ft 161 kts 178°
2026-05-07 14:25 46.82978 7.70340 7163 ft 154 kts 195°
2026-05-07 14:25 46.82038 7.69673 7003 ft 156 kts 224°
2026-05-07 14:25 46.81232 7.68620 6545 ft 153 kts 237°
2026-05-07 14:25 46.80680 7.67323 6145 ft 151 kts 256°
2026-05-07 14:26 46.80537 7.65829 5716 ft 151 kts 281°
2026-05-07 14:26 46.80888 7.64415 5314 ft 150 kts 309°
2026-05-07 14:26 46.81642 7.63402 5055 ft 151 kts 331°
2026-05-07 14:26 46.82530 7.62472 4764 ft 158 kts 332°
2026-05-07 14:27 46.83308 7.61303 4288 ft 163 kts 319°
2026-05-07 14:27 46.83884 7.59895 3529 ft 162 kts 307°
2026-05-07 14:27 46.84337 7.58390 2997 ft 154 kts 307°
2026-05-07 14:27 46.84993 7.57264 2826 ft 138 kts 325°
2026-05-07 14:28 46.85693 7.56393 2667 ft 123 kts 332°
2026-05-07 14:28 46.86383 7.55662 2533 ft 122 kts 334°
2026-05-07 14:28 46.87042 7.54953 2451 ft 125 kts 331°
2026-05-07 14:28 46.87711 7.54111 2316 ft 124 kts 327°
2026-05-07 14:29 46.88355 7.53321 2258 ft 122 kts 327°
2026-05-07 14:29 46.89000 7.52605 2113 ft 113 kts 331°
2026-05-07 14:29 46.89597 7.51910 2011 ft 107 kts 330°
2026-05-07 14:29 46.90155 7.51250 1870 ft 94 kts 331°
2026-05-07 14:30 46.90616 7.50684 1709 ft 86 kts 326°
2026-05-07 14:30 46.91048 7.50202 1678 ft 69 kts 328°
2026-05-07 14:30 46.91385 7.49816 1672 ft 55 kts 307°
2026-05-07 14:30 46.91535 7.49566 1676 ft 16 kts 320°
2026-05-07 14:31 46.91627 7.49451 1679 ft 18 kts 319°
2026-05-07 14:31 46.91720 7.49338 1674 ft 16 kts 319°
2026-05-07 14:31 46.91802 7.49238 1680 ft 15 kts 320°
2026-05-07 14:31 46.91880 7.49131 1672 ft 12 kts 302°
2026-05-07 14:32 46.91895 7.49116 1672 ft 0 kts
2026-05-07 14:32 46.91900 7.49119 1672 ft 3 kts 21°
2026-05-07 14:32 46.91909 7.49150 1672 ft 4 kts 104°
2026-05-07 14:32 46.91877 7.49172 1672 ft 10 kts 161°
2026-05-07 14:33 46.91788 7.49254 1681 ft 16 kts 136°
2026-05-07 14:33 46.91701 7.49367 1674 ft 18 kts 140°
2026-05-07 14:33 46.91606 7.49483 1678 ft 18 kts 142°
2026-05-07 14:33 46.91521 7.49588 1672 ft 13 kts 140°
2026-05-07 14:34 46.91499 7.49632 1675 ft 0 kts 88°
2026-05-07 14:34 46.91509 7.49660 1672 ft 6 kts 59°
2026-05-07 14:34 46.91530 7.49712 1674 ft 2 kts 101°
2026-05-07 14:34 46.91504 7.49758 1672 ft 12 kts 137°
2026-05-07 14:35 46.91443 7.49831 1672 ft 7 kts 143°
2026-05-07 14:35 46.91397 7.49882 1677 ft 9 kts 143°
2026-05-07 14:35 46.91357 7.49935 1677 ft 3 kts 112°
2026-05-07 14:35 46.91358 7.49948 1674 ft 2 kts 64°
2026-05-07 14:36 46.91360 7.49956 1672 ft 0 kts 72°
2026-05-07 14:36 46.91361 7.49971 1672 ft 3 kts 86°
2026-05-07 14:36 46.91359 7.49982 1672 ft 1 kts 125°
2026-05-07 14:36 46.91357 7.49985 1672 ft 0 kts 130°